Tracking 22441 objects as of 1-Mar-2021
HD Live streaming from Space Station
objects crossing your sky now

DELTA 1 DEB

Track DELTA 1 DEB now!
10-day predictions


NORAD ID: 14497
Int'l Code: 1977-065FN
Perigee: 943.8 km
Apogee: 2,384.7 km
Inclination: 29.3 °
Period: 119.5 minutes
Semi major axis: 8035 km
RCS: 0.1116 m2 (medium)
Launch date: July 14, 1977
Source: United States (US)
Launch site: AIR FORCE EASTERN TEST RANGE (AFETR)

Note: This is SATELLITE DEBRIS
aabbcc
Your satellite tracking list
Your tracking list is empty




NASA's NSSDC Master Catalog

Two Line Element Set (TLE):
1 14497U 77065FN  21059.65441873 -.00000336  00000-0 -12842-2 0  9998
2 14497  29.2918 127.7609 0896603  68.7386  96.6058 12.05332953747319
Source of the keplerian elements: AFSPC